NOZ5AY ENZV-ENGM

Flight info

Callsign NOZ5AY
Flight time N/A
Altitude 33000
Route UPLEV DCT OSKOM DCT RIPAM
Aircraft B738/M-SADE3GHIJ1LRWXY/LB1

Departure

Time 2026-04-08 15:55
Airport Stavanger Airport, Sola (ENZV)

Arrival

Time N/A
Airport Oslo-Gardermoen International Airport (ENGM)
Time Latitude Longitude Altitude Speed Heading
2026-04-08 15:24 58.88443 5.62828 24 ft 0 kts 225°
2026-04-08 15:39 58.88443 5.62829 24 ft 0 kts 225°
2026-04-08 15:39 58.88444 5.62830 24 ft 0 kts 225°
2026-04-08 15:40 58.88448 5.62838 29 ft 2 kts 225°
2026-04-08 15:40 58.88460 5.62860 29 ft 2 kts 225°
2026-04-08 15:41 58.88471 5.62882 27 ft 2 kts 225°
2026-04-08 15:41 58.88482 5.62904 28 ft 1 kts 225°
2026-04-08 15:45 58.88483 5.62904 28 ft 0 kts 225°
2026-04-08 15:49 58.88480 5.62904 28 ft 1 kts 206°
2026-04-08 15:49 58.88476 5.62913 28 ft 1 kts 131°
2026-04-08 15:50 58.88475 5.62944 27 ft 5 kts 92°
2026-04-08 15:50 58.88469 5.63023 24 ft 7 kts 105°
2026-04-08 15:50 58.88439 5.63107 25 ft 8 kts 128°
2026-04-08 15:50 58.88427 5.63202 27 ft 7 kts 83°
2026-04-08 15:51 58.88436 5.63297 28 ft 7 kts 77°
2026-04-08 15:51 58.88459 5.63381 28 ft 7 kts 46°
2026-04-08 15:51 58.88502 5.63417 30 ft 7 kts
2026-04-08 15:51 58.88577 5.63417 30 ft 14 kts
2026-04-08 15:52 58.88682 5.63418 31 ft 16 kts
2026-04-08 15:52 58.88790 5.63415 30 ft 15 kts 358°
2026-04-08 15:52 58.88886 5.63411 29 ft 14 kts 359°
2026-04-08 15:52 58.88985 5.63410 27 ft 15 kts
2026-04-08 15:53 58.89088 5.63410 25 ft 15 kts 360°
2026-04-08 15:53 58.89182 5.63403 25 ft 12 kts 358°
2026-04-08 15:53 58.89263 5.63400 24 ft 9 kts 359°
2026-04-08 15:53 58.89328 5.63437 22 ft 12 kts 46°
2026-04-08 15:54 58.89347 5.63579 17 ft 10 kts 88°
2026-04-08 15:54 58.89331 5.63704 18 ft 12 kts 124°
2026-04-08 15:54 58.89273 5.63741 18 ft 0 kts 181°
2026-04-08 15:55 58.89042 5.63746 22 ft 75 kts 178°
2026-04-08 15:55 58.88258 5.63788 38 ft 146 kts 175°
2026-04-08 15:55 58.87154 5.63847 656 ft 169 kts 177°